Regional Weather Roundup
Issued by NWS

Home | Current Version | Previous Version | Text Only | Print | Product List | Glossary Off
Versions: 1 2 3 4 5 6 7 8 9 10 11 12 13 14 15 16 17 18 19 20 21 22 23 24 25 26 27 28 29 30 31 32 33 34 35 36 37 38 39 40 41 42 43 44 45 46 47 48 49 50

598
ASUS43 KFSD 091002
RWRSD

WEATHER ROUNDUP FOR SOUTH DAKOTA
NATIONAL WEATHER SERVICE SIOUX FALLS SD
400 AM CST TUE FEB 09 2016

NOTE: "FAIR" INDICATES FEW OR NO CLOUDS BELOW 12,000 FEET WITH NO
SIGNIFICANT WEATHER AND/OR OBSTRUCTIONS TO VISIBILITY.


SDZ001>005-009-010-012>017-091100-
NORTHWEST AND NORTH CENTRAL SOUTH DAKOTA

CITY           SKY/WX    TMP DP  RH WIND       PRES   REMARKS
BUFFALO          N/A     24  14  65 W6        30.14F WCI  17
FAITH            N/A     29  16  58 N7        30.22F WCI  22
MOBRIDGE       CLOUDY    23  10  57 N9        30.24F WCI  13
$$

SDZ012>016-024>037-041>051-057-063-072>074-091100-
SOUTHWEST AND SOUTH CENTRAL SOUTH DAKOTA

CITY           SKY/WX    TMP DP  RH WIND       PRES   REMARKS
RAPID CTY ARPT CLEAR     25  15  66 CALM      30.22S
PIERRE         CLOUDY    24  14  65 N10       30.26R WCI  14
CUSTER         CLEAR     33  22  63 NW8       30.17S WCI  26
PHILIP         CLOUDY    30  20  66 NW3       30.25S
PINE RIDGE     PTCLDY    24  19  81 SW6       30.21S WCI  17
WINNER         CLOUDY    24  15  68 N12       30.24R WCI  13
$$

SDZ004>011-016>023-039-040-091100-
NORTHEAST SOUTH DAKOTA

CITY           SKY/WX    TMP DP  RH WIND       PRES   REMARKS
ABERDEEN       CLEAR     12   6  77 N12       30.27S WCI  -2
WATERTOWN      CLEAR      4  -2  76 N16       30.16S WCI -15
BROOKINGS      CLEAR      5   0  79 N18G25    30.14S WCI -15
SISSETON         N/A      5   1  83 N14       30.23S WCI -12
$$

SDZ017-020-022-023-036>040-048>070-091100-
SOUTHEAST SOUTH DAKOTA

CITY           SKY/WX    TMP DP  RH WIND       PRES   REMARKS
SIOUX FALLS    CLEAR      9   2  73 N23       30.14S WCI -11
HURON          CLEAR     13   8  81 N13       30.25S WCI  -2
MITCHELL       CLEAR     15   9  76 NW14      30.24S WCI   0
YANKTON        CLEAR     16   7  67 NW20      30.20R WCI  -1
$$

ABBREVIATIONS USED IN REMARKS
   TC - TEMPERATURE IN CELSIUS
  WCI - WIND CHILL INDEX
   HX - HEAT INDEX
  VSB - VISIBILITY





USA.gov is the U.S. government's official web portal to all federal, state and local government web resources and services.